FW9327 Weather Reports


time (UTC)temp
F
wind
direction
speed
knots
gust
knots
rain 1hr
in
rain 24hr
in
rain mn
in
humidity
%
barometer
mb
20260503234559 66 360 2.6 13.0 0.00 0.11 0.11 48 1005.1
20260503233051 66 5 1.7 10.4 0.00 0.11 0.11 47 1005.1
20260503231551 67 9 2.6 14.8 0.00 0.11 0.11 47 1005.0
20260503230055 67 360 3.5 10.4 0.00 0.11 0.11 45 1005.3
20260503224552 67 360 3.5 10.4 0.00 0.11 0.11 45 1005.3
20260503223051 67 9 3.5 9.6 0.00 0.11 0.11 45 1005.5
20260503221558 67 5 3.5 11.3 0.00 0.11 0.11 45 1005.6
20260503220057 66 360 3.5 9.6 0.00 0.11 0.11 46 1005.7
20260503214553 65 360 2.6 13.9 0.00 0.11 0.11 46 1005.8
20260503213049 66 360 5.2 13.0 0.00 0.11 0.11 44 1006.1
20260503211619 67 5 4.3 10.4 0.00 0.11 0.11 44 1006.5
20260503210052 65 360 4.3 15.6 0.00 0.11 0.11 46 1006.8
20260503204558 64 360 2.6 14.8 0.00 0.11 0.11 44 1007.2
20260503203107 67 5 4.3 16.5 0.00 0.11 0.11 42 1007.4
20260503201554 67 5 6.1 15.6 0.00 0.11 0.11 43 1007.5
20260503200048 66 5 5.2 17.4 0.00 0.11 0.11 46 1007.9
20260503194557 65 5 6.1 15.6 0.00 0.11 0.11 46 1007.8
20260503193055 63 5 5.2 13.9 0.00 0.11 0.11 51 1008.1
20260503191554 61 5 3.5 13.9 0.00 0.11 0.11 56 1008.1
20260503190056 60 360 5.2 13.9 0.00 0.11 0.11 62 1008.5
20260503184604 58 360 5.2 16.5 0.01 0.11 0.11 65 1008.9
20260503183056 57 360 4.3 13.9 0.01 0.11 0.11 70 1009.0
20260503181604 54 360 2.6 10.4 0.02 0.11 0.11 79 1009.3
20260503180052 51 360 2.6 8.7 0.03 0.11 0.11 85 1010.0
20260503174552 49 360 2.6 9.6 0.03 0.10 0.10 87 1010.2
20260503173059 48 9 2.6 8.7 0.04 0.10 0.10 87 1011.1
20260503171549 48 9 1.7 9.6 0.03 0.09 0.09 88 1011.6
20260503081553 42 5 1.7 3.5 0.00 0.00 0.00 66 1014.1
20260503071600 43 5 0.9 4.3 0.00 0.00 0.00 64 1014.1
20260503060107 42 0 0.0 1.7 0.00 0.00 0.00 64 1014.8
20260503054555 43 0 0.9 2.6 0.00 0.00 0.00 62 1014.8
20260503053053 44 5 0.9 2.6 0.00 0.00 0.00 61 1015.0
20260503051550 44 9 0.9 3.5 0.00 0.00 0.00 60 1015.1
20260503050051 44 5 0.9 4.3 0.00 0.00 0.00 60 1015.1
20260503044558 44 9 0.9 3.5 0.00 0.00 0.00 61 1015.1
20260503043057 44 5 0.9 3.5 0.00 0.00 0.00 60 1015.1
20260503041553 44 5 0.9 3.5 0.00 0.00 0.00 60 1015.2
20260503040057 45 5 0.9 2.6 0.00 0.00 0.00 60 1015.2
20260503034551 45 9 0.9 2.6 0.00 0.00 0.00 60 1015.2
20260503033104 45 5 0.9 2.6 0.00 0.00 0.00 59 1015.4
20260503031555 45 9 0.9 2.6 0.00 0.00 0.00 59 1015.4
20260503030056 45 9 0.9 1.7 0.00 0.00 0.00 59 1015.5
20260503024554 45 9 0.9 2.6 0.00 0.00 0.00 59 1015.5
20260503023100 44 5 0.0 0.9 0.00 0.00 0.00 62 1015.5
20260503021555 45 0 0.0 0.0 0.00 0.00 0.00 61 1015.4
20260503020057 46 0 0.0 0.0 0.00 0.00 0.00 58 1015.4
20260503014549 47 0 0.0 1.7 0.00 0.00 0.00 54 1015.3
20260503013058 47 0 0.0 0.9 0.00 0.00 0.00 53 1015.3
20260503011603 49 0 0.0 0.0 0.00 0.00 0.00 50 1015.3
20260503010054 50 0 0.9 3.5 0.00 0.00 0.00 46 1015.3
20260503004614 51 9 0.0 2.6 0.00 0.00 0.00 45 1015.2
20260503003059 52 0 0.0 4.3 0.00 0.00 0.00 44 1015.4
20260503001552 53 360 0.9 4.3 0.00 0.00 0.00 43 1015.4
20260503000100 53 0 0.0 2.6 0.00 0.00 0.00 45 1015.4